Location: Jewell
(31.5029°N, 97.1961°W)
Time: 19:43:35
(UTC+00:00)

ARIANE 6 FM1 Upper Stage - Visible Passes

Search period start: 12 December 2025 00:00
Search period end: 22 December 2025 00:00
Orbit: 522 x 611 km, 62.0° (Epoch: 12 December)

Date Brightness Start Highest point End Pass type
(mag) Time Alt. Az. Time Alt. Az. Time Alt. Az.
14 Dec 5.7 11:16:29 10° SSE 11:18:54 15° ESE 11:21:17 10° ENE visible
15 Dec 4.9 11:15:50 10° S 11:19:11 24° ESE 11:22:29 10° ENE visible
16 Dec 3.9 11:16:12 13° S 11:19:29 39° ESE 11:23:15 10° NE visible
17 Dec 3.0 11:20:18 60° ENE 11:20:18 60° ENE 11:23:48 10° NE visible
17 Dec 4.6 12:58:48 10° NW 12:59:10 10° NW 12:59:33 10° NW visible
18 Dec 4.5 11:22:44 21° NNE 11:22:44 21° NNE 11:24:10 10° NNE visible
